Flag for Germany Weather past 2 weeks in Tübingen, Baden-Württemberg, Germany

Now
59 °F

Passing clouds.


Feels Like: 57 °F
Forecast: 33 / 61 °F
Wind: 12 mph from East

Location: Stuttgart-Echterdingen

Current Time: Apr 19, 2015 at 5:53:07 PM

Latest Report: Apr 19, 2015 at 5:20 PM


Visibility: N/A

Pressure: 30.07 "Hg

Humidity: 29%

Dew point: 27 °F

Location of TübingenLocation

Historic Weather in Tübingen — Graph

°F

Tübingen temperature yesterday

Maximum temperature yesterday: 54 °F (at 2:50 PM)
Minimum temperature yesterday: 39 °F (at 6:50 AM)
Average temperature yesterday: 46 °F

Past Weeks' High & Low Weather Summary

 TemperatureHumidityPressure
High77 °F (Apr 15, 3:20 PM)100% (Apr 4, 8:50 PM)30.60 "Hg (Apr 4, 8:50 PM)
Low27 °F (Apr 6, 7:20 AM)15% (Apr 15, 5:50 PM)29.86 "Hg (Apr 17, 7:50 AM)
Average51 °F60%30.24 "Hg
* Reported Apr 4 4:20 PM — Apr 19 4:50 PM, Tübingen, Weather by CustomWeather, © 2015

Note: Actual official high and low records may vary slightly from our data, if they occured in-between our weather recording intervals... More about our weather records

Advertising

Tübingen weather history for previous 24 hours

 ConditionsComfort  
Time TempWeatherWind HumidityBarometerVisibility
4:50 PM
Sun, Apr 19
59 °FPassing clouds.10 mph29%30.07 "HgN/A
4:20 PM59 °FSunny.14 mph29%30.07 "Hg10 mi
3:50 PM59 °FPassing clouds.13 mph34%30.07 "HgN/A
3:20 PM59 °FPassing clouds.13 mph31%30.07 "HgN/A
2:50 PM59 °FPassing clouds.13 mph31%30.07 "HgN/A
2:20 PM57 °FPassing clouds.13 mph33%30.09 "HgN/A
1:50 PM57 °FPassing clouds.15 mph31%30.09 "HgN/A
1:20 PM55 °FSunny.14 mph33%30.09 "Hg10 mi
12:50 PM55 °FPassing clouds.12 mph36%30.09 "HgN/A
12:20 PM54 °FPassing clouds.13 mph35%30.09 "HgN/A
11:50 AM54 °FPassing clouds.14 mph38%30.09 "HgN/A
11:20 AM52 °FPassing clouds.14 mph44%30.09 "HgN/A
10:50 AM52 °FPassing clouds.15 mph41%30.09 "HgN/A
10:20 AM50 °FSunny.14 mph50%30.09 "Hg10 mi
9:50 AM48 °FPassing clouds.12 mph50%30.09 "HgN/A
9:20 AM46 °FPassing clouds.9 mph53%30.12 "HgN/A
8:50 AM45 °FPassing clouds.8 mph57%30.12 "HgN/A
8:20 AM43 °FPassing clouds.3 mph61%30.12 "HgN/A
7:50 AM39 °FPassing clouds.3 mph65%30.12 "HgN/A
7:20 AM36 °FClear.2 mph70%30.09 "Hg10 mi
6:50 AM36 °FClear.1 mph70%30.09 "Hg10 mi
6:20 AM36 °FClear.1 mph70%30.12 "Hg10 mi
5:50 AM36 °FClear.2 mph70%30.12 "Hg10 mi
5:20 AM36 °FClear.2 mph70%30.12 "Hg10 mi
4:50 AM36 °FClear.2 mph70%30.12 "Hg10 mi
4:20 AM36 °FPassing clouds.3 mph70%30.15 "HgN/A
3:50 AM36 °FClear.5 mph70%30.15 "Hg10 mi
3:20 AM36 °FClear.6 mph75%30.15 "Hg10 mi
2:50 AM36 °FClear.7 mph75%30.18 "Hg10 mi
2:20 AM37 °FClear.3 mph70%30.18 "Hg10 mi
1:20 AM39 °FClear.6 mph65%30.18 "Hg10 mi
12:50 AM41 °FPassing clouds.3 mph61%30.18 "HgN/A
12:20 AM39 °FClear.3 mph61%30.21 "Hg10 mi
11:50 PM
Sat, Apr 18
41 °FClear.3 mph57%30.18 "Hg10 mi
11:20 PM43 °FClear.5 mph53%30.21 "Hg10 mi
10:50 PM41 °FClear.5 mph57%30.21 "Hg10 mi
10:20 PM43 °FClear.5 mph57%30.21 "Hg10 mi
9:50 PM43 °FClear.7 mph57%30.21 "Hg10 mi
9:20 PM45 °FClear.8 mph53%30.21 "Hg10 mi
8:50 PM45 °FSunny.8 mph49%30.18 "Hg10 mi
8:20 PM46 °FSunny.8 mph46%30.18 "Hg10 mi
7:50 PM50 °FSunny.9 mph43%30.18 "Hg10 mi
7:20 PM52 °FPassing clouds.8 mph38%30.18 "HgN/A
6:50 PM52 °FPassing clouds.10 mph35%30.18 "HgN/A
6:20 PM54 °FPassing clouds.9 mph35%30.18 "HgN/A
5:50 PM54 °FPassing clouds.13 mph35%30.18 "HgN/A
5:20 PM54 °FPassing clouds.12 mph35%30.18 "HgN/A
Weather by CustomWeather, © 2015

See weather overviewHow to use our weather pages